DW8749 Weather Reports


Display with metric or nautical units.
time (UTC)temp
F
wind
direction
speed
MPH
gust
MPH
rain 1hr
in
rain 24hr
in
rain mn
in
humidity
%
barometer
mb
20260505125008 50 22 10.0 24.0 0.00 0.00 0.00 56 1010.8
20260505124530 50 43 13.0 19.0 0.00 0.00 0.00 56 1010.6
20260505124010 50 53 9.0 24.0 0.00 0.00 0.00 56 1010.6
20260505123504 50 40 14.0 24.0 0.00 0.00 0.00 56 1010.6
20260505123028 50 53 9.0 24.0 0.00 0.00 0.00 56 1010.5
20260505122504 50 38 12.0 24.0 0.00 0.00 0.00 55 1010.3
20260505122008 50 48 12.0 21.0 0.00 0.00 0.00 55 1010.4
20260505121525 50 59 12.0 21.0 0.00 0.00 0.00 56 1010.3
20260505121009 50 38 10.0 21.0 0.00 0.00 0.00 55 1010.3
20260505120510 50 59 9.0 19.0 0.00 0.00 0.00 55 1010.1
20260505120029 50 55 11.0 22.0 0.00 0.00 0.00 55 1010.1
20260505115509 50 43 11.0 22.0 0.00 0.00 0.00 55 1010.2
20260505115006 50 46 9.0 18.0 0.00 0.00 0.00 55 1010.2
20260505114527 50 44 10.0 18.0 0.00 0.00 0.00 54 1010.1
20260505114009 51 56 11.0 19.0 0.00 0.00 0.00 54 1009.9
20260505113507 51 60 12.0 19.0 0.00 0.00 0.00 54 1009.8
20260505113022 51 23 11.0 18.0 0.00 0.00 0.00 54 1009.8
20260505112513 51 12 8.0 19.0 0.00 0.00 0.00 53 1009.6
20260505112008 51 50 8.0 19.0 0.00 0.00 0.00 53 1009.5
20260505111526 51 34 9.0 24.0 0.00 0.00 0.00 53 1009.5
20260505111012 51 43 13.0 24.0 0.00 0.00 0.00 52 1009.4
20260505110508 51 63 12.0 24.0 0.00 0.00 0.00 52 1009.5
20260505102008 53 40 13.0 24.0 0.00 0.00 0.00 47 1009.1
20260505101546 53 32 14.0 24.0 0.00 0.00 0.00 47 1008.8
20260505101011 53 80 12.0 25.0 0.00 0.00 0.00 47 1008.6
20260505100510 53 26 15.0 25.0 0.00 0.00 0.00 47 1008.5
20260505100028 53 38 11.0 25.0 0.00 0.00 0.00 47 1008.6
20260505095503 53 17 8.0 25.0 0.00 0.00 0.00 48 1008.5
20260505095008 53 61 14.0 25.0 0.00 0.00 0.00 48 1008.2
20260505094517 53 55 15.0 25.0 0.00 0.00 0.00 48 1008.2
20260505094007 53 37 11.0 27.0 0.00 0.00 0.00 47 1008.1
20260505093507 53 44 14.0 27.0 0.00 0.00 0.00 47 1008.0
20260505093025 53 42 12.0 24.0 0.00 0.00 0.00 47 1007.9
20260505092503 53 60 10.0 21.0 0.00 0.00 0.00 47 1007.8
20260505092002 53 41 10.0 21.0 0.00 0.00 0.00 47 1007.7
20260505091508 53 76 10.0 21.0 0.00 0.00 0.00 48 1007.6
20260505091005 53 53 10.0 21.0 0.00 0.00 0.00 48 1007.8
20260505090503 53 67 14.0 21.0 0.00 0.00 0.00 48 1007.8
20260505090012 53 67 11.0 25.0 0.00 0.00 0.00 48 1007.7
20260505085508 54 51 13.0 25.0 0.00 0.00 0.00 48 1007.5
20260505085009 54 38 8.0 23.0 0.00 0.00 0.00 48 1007.3
20260505084522 54 53 11.0 27.0 0.00 0.00 0.00 48 1007.1
20260505084010 54 50 14.0 31.0 0.00 0.00 0.00 47 1006.8
20260505083507 54 21 12.0 33.0 0.00 0.00 0.00 47 1006.8
20260505083025 54 42 16.0 28.0 0.00 0.00 0.00 46 1006.8
20260505082502 54 51 13.0 27.0 0.00 0.00 0.00 46 1006.9
20260505082003 54 67 17.0 34.0 0.00 0.00 0.00 46 1007.0
20260505081512 55 40 17.0 34.0 0.00 0.00 0.00 45 1006.8
20260505081003 55 70 17.0 26.0 0.00 0.00 0.00 45 1006.8
20260505080506 55 46 17.0 32.0 0.00 0.00 0.00 45 1006.8
20260505080015 55 44 15.0 32.0 0.00 0.00 0.00 44 1006.8
20260505075507 55 45 15.0 26.0 0.00 0.00 0.00 45 1006.7
20260505075010 55 94 12.0 26.0 0.00 0.00 0.00 45 1006.7
20260505074524 56 41 18.0 33.0 0.00 0.00 0.00 45 1006.5
20260505074012 56 39 19.0 33.0 0.00 0.00 0.00 44 1006.3
20260505073509 56 22 16.0 26.0 0.00 0.00 0.00 44 1006.5
20260505073027 56 352 15.0 28.0 0.00 0.00 0.00 44 1006.3
20260505072507 56 47 10.0 28.0 0.00 0.00 0.00 43 1006.1
20260505072002 56 43 17.0 27.0 0.00 0.00 0.00 43 1006.0
20260505071511 56 32 16.0 29.0 0.00 0.00 0.00 43 1006.0
20260505071006 57 94 11.0 29.0 0.00 0.00 0.00 43 1006.2
20260505070507 57 51 18.0 29.0 0.00 0.00 0.00 42 1006.3
20260505070020 57 44 14.0 23.0 0.00 0.00 0.00 42 1006.2
20260505065507 57 22 15.0 24.0 0.00 0.00 0.00 42 1006.3
20260505065006 58 57 15.0 26.0 0.00 0.00 0.00 43 1006.2
20260505064526 58 36 13.0 26.0 0.00 0.00 0.00 42 1006.1
20260505064006 59 50 16.0 26.0 0.00 0.00 0.00 41 1006.1
20260505063509 60 42 13.0 24.0 0.00 0.00 0.00 40 1006.1
20260505063010 60 46 14.0 27.0 0.00 0.00 0.00 40 1005.8
20260505062503 61 26 17.0 27.0 0.00 0.00 0.00 39 1005.7
20260505062010 61 60 20.0 28.0 0.00 0.00 0.00 39 1005.6
20260505061523 61 56 17.0 28.0 0.00 0.00 0.00 39 1005.4
20260505061006 61 11 12.0 23.0 0.00 0.00 0.00 40 1005.4
20260505060508 62 38 12.0 22.0 0.00 0.00 0.00 39 1005.3
20260505060024 62 38 12.0 24.0 0.00 0.00 0.00 39 1005.1
20260505055510 62 57 16.0 27.0 0.00 0.00 0.00 39 1005.1
20260505055013 62 67 9.0 27.0 0.00 0.00 0.00 39 1005.0
20260505054524 62 34 10.0 25.0 0.00 0.00 0.00 39 1005.1
20260505054014 63 42 13.0 26.0 0.00 0.00 0.00 39 1004.9
20260505053504 63 52 16.0 26.0 0.00 0.00 0.00 38 1004.8
20260505053026 63 53 14.0 22.0 0.00 0.00 0.00 39 1004.8
20260505052504 63 34 12.0 22.0 0.00 0.00 0.00 39 1004.7
20260505052009 64 44 10.0 20.0 0.00 0.00 0.00 39 1004.6
20260505051532 64 65 9.0 25.0 0.00 0.00 0.00 39 1004.4
20260505051009 64 51 10.0 25.0 0.00 0.00 0.00 38 1004.3
20260505050507 64 69 12.0 24.0 0.00 0.00 0.00 38 1004.3
20260505041523 67 70 16.0 24.0 0.00 0.00 0.00 40 1003.3
20260505041009 67 71 12.0 24.0 0.00 0.00 0.00 40 1003.3
20260505040512 67 51 12.0 20.0 0.00 0.00 0.00 41 1003.3
20260505040025 67 38 13.0 20.0 0.00 0.00 0.00 42 1003.3
20260505035515 67 54 13.0 27.0 0.00 0.00 0.00 42 1003.2
20260505035010 68 44 13.0 27.0 0.00 0.00 0.00 43 1003.3
20260505034528 68 59 15.0 24.0 0.00 0.00 0.00 44 1003.2
20260505034006 68 41 13.0 24.0 0.00 0.00 0.00 44 1003.3
20260505033505 69 42 13.0 24.0 0.00 0.00 0.00 43 1003.3
20260505033016 69 10 16.0 28.0 0.00 0.00 0.00 42 1003.1
20260505032508 70 50 16.0 28.0 0.00 0.00 0.00 41 1002.9
20260505032006 70 38 16.0 29.0 0.00 0.00 0.00 40 1002.9
20260505031528 71 54 13.0 29.0 0.00 0.00 0.00 38 1003.1
20260505031016 71 24 15.0 23.0 0.00 0.00 0.00 38 1003.1
20260505030511 72 55 13.0 21.0 0.00 0.00 0.00 38 1003.0
20260505030025 72 360 8.0 15.0 0.00 0.00 0.00 39 1002.8
20260505025508 72 36 6.0 11.0 0.00 0.00 0.00 41 1002.7
20260505025009 72 48 5.0 10.0 0.00 0.00 0.00 41 1002.4
20260505024510 72 31 5.0 12.0 0.00 0.00 0.00 41 1002.4
20260505024003 72 31 6.0 12.0 0.00 0.00 0.00 41 1002.4
20260505023507 72 18 4.0 10.0 0.00 0.00 0.00 41 1002.2
20260505023021 72 56 3.0 9.0 0.00 0.00 0.00 41 1002.2
20260505022507 72 98 2.0 13.0 0.00 0.00 0.00 41 1002.2
20260505022007 72 53 6.0 13.0 0.00 0.00 0.00 42 1002.1
20260505021527 72 75 4.0 9.0 0.00 0.00 0.00 42 1002.0
20260505021009 72 63 1.0 6.0 0.00 0.00 0.00 43 1002.1
20260505020507 73 103 0.0 5.0 0.00 0.00 0.00 45 1002.0
20260505020033 73 152 2.0 8.0 0.00 0.00 0.00 41 1002.0
20260505015511 74 86 1.0 8.0 0.00 0.00 0.00 40 1001.9
20260505015009 74 82 2.0 6.0 0.00 0.00 0.00 39 1001.7
20260505014514 74 69 1.0 9.0 0.00 0.00 0.00 40 1001.8
20260505014007 74 111 1.0 12.0 0.00 0.00 0.00 40 1001.8
20260505013507 74 144 5.0 16.0 0.00 0.00 0.00 42 1001.9
20260505013028 74 141 9.0 23.0 0.00 0.00 0.00 40 1001.7
20260505012508 76 159 13.0 22.0 0.00 0.00 0.00 41 1001.8
20260505012007 80 180 8.0 13.0 0.00 0.00 0.00 33 1001.7
20260505011534 80 205 2.0 5.0 0.00 0.00 0.00 27 1001.5
20260505011009 80 63 2.0 5.0 0.00 0.00 0.00 26 1001.3
20260505010511 81 337 3.0 5.0 0.00 0.00 0.00 26 1001.2
20260505010045 81 288 2.0 8.0 0.00 0.00 0.00 25 1001.2
20260505005509 81 305 1.0 18.0 0.00 0.00 0.00 24 1001.2
20260505005007 81 321 5.0 20.0 0.00 0.00 0.00 24 1001.1
20260505004517 81 324 9.0 23.0 0.00 0.00 0.00 25 1001.0
20260505004009 81 336 11.0 23.0 0.00 0.00 0.00 25 1000.9
20260505003507 81 322 9.0 18.0 0.00 0.00 0.00 25 1001.1
20260505003022 81 138 0.0 5.0 0.00 0.00 0.00 24 1001.0
20260505002511 81 100 2.0 6.0 0.00 0.00 0.00 24 1000.9
20260505002012 82 150 2.0 6.0 0.00 0.00 0.00 24 1000.9
20260505001526 82 139 3.0 9.0 0.00 0.00 0.00 24 1000.8
20260505001009 82 134 1.0 9.0 0.00 0.00 0.00 24 1000.8
20260505000509 82 99 2.0 8.0 0.00 0.00 0.00 24 1000.6
20260505000023 82 148 2.0 8.0 0.00 0.00 0.00 25 1000.6
20260504235507 82 109 2.0 9.0 0.00 0.00 0.00 25 1000.8
20260504235007 83 133 5.0 12.0 0.00 0.00 0.00 24 1000.7
20260504234520 83 134 3.0 12.0 0.00 0.00 0.00 25 1000.8
20260504234007 83 134 4.0 11.0 0.00 0.00 0.00 24 1000.8
20260504233503 83 94 6.0 11.0 0.00 0.00 0.00 24 1000.8
20260504233003 83 138 6.0 11.0 0.00 0.00 0.00 24 1000.8
20260504232503 83 141 5.0 10.0 0.00 0.00 0.00 25 1000.8
20260504232008 83 166 5.0 12.0 0.00 0.00 0.00 24 1000.8
20260504231507 83 110 7.0 12.0 0.00 0.00 0.00 24 1000.8
20260504231004 84 127 8.0 11.0 0.00 0.00 0.00 24 1000.8
20260504230508 84 146 4.0 11.0 0.00 0.00 0.00 24 1000.8
20260504230020 84 138 7.0 11.0 0.00 0.00 0.00 24 1000.9
20260504225505 84 106 3.0 11.0 0.00 0.00 0.00 24 1000.8
20260504225006 84 130 3.0 10.0 0.00 0.00 0.00 25 1000.8
20260504224524 85 137 6.0 10.0 0.00 0.00 0.00 24 1000.8
20260504224003 85 136 5.0 11.0 0.00 0.00 0.00 24 1000.9
20260504223503 85 135 7.0 11.0 0.00 0.00 0.00 24 1001.0
20260504223011 85 132 2.0 9.0 0.00 0.00 0.00 21 1000.9
20260504222504 86 153 3.0 10.0 0.00 0.00 0.00 20 1000.8
20260504222003 86 40 4.0 10.0 0.00 0.00 0.00 19 1000.7
20260504221520 86 43 0.0 4.0 0.00 0.00 0.00 20 1000.7
20260504221006 86 67 2.0 6.0 0.00 0.00 0.00 19 1000.8
20260504220509 86 55 2.0 10.0 0.00 0.00 0.00 20 1000.8
20260504220018 86 57 3.0 10.0 0.00 0.00 0.00 19 1000.7
20260504215512 86 103 2.0 10.0 0.00 0.00 0.00 19 1000.8
20260504215011 86 90 4.0 10.0 0.00 0.00 0.00 20 1000.8
20260504214505 86 76 3.0 15.0 0.00 0.00 0.00 20 1000.9
20260504214002 86 143 4.0 15.0 0.00 0.00 0.00 20 1000.9
20260504213503 86 80 3.0 9.0 0.00 0.00 0.00 21 1000.9
20260504213006 85 113 3.0 9.0 0.00 0.00 0.00 22 1001.1
20260504212504 85 100 3.0 9.0 0.00 0.00 0.00 20 1001.2
20260504212009 85 109 2.0 9.0 0.00 0.00 0.00 20 1001.3
20260504211513 85 60 3.0 8.0 0.00 0.00 0.00 21 1001.3
20260504211007 85 77 1.0 8.0 0.00 0.00 0.00 21 1001.4
20260504210509 85 134 4.0 10.0 0.00 0.00 0.00 19 1001.4
20260504210023 86 134 4.0 14.0 0.00 0.00 0.00 19 1001.5
20260504205507 86 61 4.0 14.0 0.00 0.00 0.00 19 1001.6
20260504205008 87 118 3.0 12.0 0.00 0.00 0.00 21 1001.6
20260504204503 87 126 6.0 12.0 0.00 0.00 0.00 20 1001.7
20260504204005 87 134 3.0 12.0 0.00 0.00 0.00 19 1001.7
20260504203506 87 118 3.0 12.0 0.00 0.00 0.00 20 1001.7
20260504203012 87 84 4.0 12.0 0.00 0.00 0.00 21 1001.9
20260504202506 86 37 4.0 15.0 0.00 0.00 0.00 19 1002.0
20260504202007 86 92 1.0 15.0 0.00 0.00 0.00 20 1002.2
20260504201516 87 146 9.0 13.0 0.00 0.00 0.00 19 1002.3
20260504201008 86 76 1.0 8.0 0.00 0.00 0.00 20 1002.2
20260504200511 86 37 3.0 9.0 0.00 0.00 0.00 18 1002.4
20260504200023 86 105 3.0 10.0 0.00 0.00 0.00 22 1002.4
20260504195507 86 128 5.0 10.0 0.00 0.00 0.00 20 1002.5
20260504195004 86 49 2.0 11.0 0.00 0.00 0.00 22 1002.4
20260504194507 86 121 4.0 9.0 0.00 0.00 0.00 20 1002.5
20260504194006 86 66 4.0 9.0 0.00 0.00 0.00 22 1002.7
20260504193506 86 57 3.0 10.0 0.00 0.00 0.00 21 1002.7
20260504193014 86 100 4.0 11.0 0.00 0.00 0.00 20 1002.9
20260504192506 86 80 4.0 11.0 0.00 0.00 0.00 22 1002.9
20260504192007 86 65 5.0 11.0 0.00 0.00 0.00 20 1003.1
20260504191530 86 86 2.0 11.0 0.00 0.00 0.00 23 1003.1
20260504191008 85 36 1.0 6.0 0.00 0.00 0.00 22 1003.1
20260504190507 85 89 2.0 11.0 0.00 0.00 0.00 24 1003.1
20260504190026 85 133 2.0 15.0 0.00 0.00 0.00 21 1003.3
20260504185503 85 76 4.0 15.0 0.00 0.00 0.00 21 1003.4
20260504185004 85 347 6.0 11.0 0.00 0.00 0.00 20 1003.3
20260504184514 85 30 6.0 11.0 0.00 0.00 0.00 22 1003.4
20260504184004 85 53 5.0 12.0 0.00 0.00 0.00 22 1003.4
20260504183507 85 51 6.0 12.0 0.00 0.00 0.00 21 1003.4
20260504183016 85 73 4.0 12.0 0.00 0.00 0.00 23 1003.4
20260504182508 85 65 5.0 12.0 0.00 0.00 0.00 22 1003.5
20260504182011 85 67 6.0 16.0 0.00 0.00 0.00 22 1003.5
20260504181524 85 58 8.0 17.0 0.00 0.00 0.00 21 1003.5
20260504181008 85 54 7.0 17.0 0.00 0.00 0.00 22 1003.5
20260504180510 85 47 6.0 15.0 0.00 0.00 0.00 23 1003.6
20260504180028 84 43 7.0 16.0 0.00 0.00 0.00 24 1003.7
20260504175504 84 50 9.0 16.0 0.00 0.00 0.00 24 1003.9
20260504175007 84 43 7.0 12.0 0.00 0.00 0.00 24 1003.9
20260504174514 84 65 5.0 14.0 0.00 0.00 0.00 25 1003.9
20260504174004 84 43 7.0 14.0 0.00 0.00 0.00 23 1004.0
20260504173507 84 46 7.0 13.0 0.00 0.00 0.00 25 1004.0
20260504173019 83 57 4.0 13.0 0.00 0.00 0.00 28 1004.1
20260504172508 83 67 6.0 9.0 0.00 0.00 0.00 27 1004.1
20260504172010 82 76 3.0 9.0 0.00 0.00 0.00 32 1004.1
20260504171531 82 35 5.0 10.0 0.00 0.00 0.00 29 1004.2
20260504171009 82 28 5.0 10.0 0.00 0.00 0.00 28 1004.2
20260504170517 82 69 5.0 9.0 0.00 0.00 0.00 30 1004.3
20260504151009 74 5 3.0 9.0 0.00 0.00 0.00 33 1003.8
20260504150508 73 287 7.0 10.0 0.00 0.00 0.00 34 1004.0
20260504141008 64 246 3.0 7.0 0.00 0.00 0.00 43 1003.8
20260504140502 63 279 1.0 7.0 0.00 0.00 0.00 43 1003.8
20260504130511 58 255 3.0 8.0 0.00 0.00 0.00 52 1003.7